This demonstration page uses our WeatherBlox Daily Observations layout. Learn more.

Left ArrowRight Arrow

Hourly Observations for May 19, 2015

Temp ( °F °C ) Dew Point ( °F °C ) Humidity (%) Winds ( mph kmh ) Pressure ( in mb ) Visibility ( mi km ) Precip ( " mm )
12:16 am 00:16 Clear 66 19 43 6 43 43 NW 10 17 30.12 1020 10 16.0934 N/A
12:36 am 00:36 Clear 64 18 43 6 46 46 WNW 7 11 30.12 1020 10 16.0934 N/A
12:56 am 00:56 Clear 64 18 41 5 43 43 WNW 12 19 30.12 1020 10 16.0934 N/A
1:16 am 01:16 Clear 63 17 37 3 39 39 NW 10 17 30.12 1020 10 16.0934 N/A
1:36 am 01:36 Clear 61 16 37 3 42 42 WNW 8 13 30.12 1020 10 16.0934 N/A
1:57 am 01:57 Clear 61 16 37 3 42 42 NW 10 17 30.12 1020 10 16.0934 N/A
2:16 am 02:16 Clear 59 15 37 3 45 45 NW 9 15 30.12 1020 10 16.0934 N/A
2:36 am 02:36 Clear 57 14 37 3 48 48 NW 10 17 30.12 1020 10 16.0934 N/A
2:56 am 02:56 Clear 57 14 37 3 48 48 NW 8 13 30.12 1020 10 16.0934 N/A
3:16 am 03:16 Clear 55 13 39 4 55 55 NW 8 13 30.12 1020 10 16.0934 N/A
3:37 am 03:37 Clear 55 13 39 4 55 55 NW 8 13 30.12 1020 10 16.0934 N/A
3:56 am 03:56 Clear 54 12 39 4 58 58 NNW 10 17 30.15 1021 10 16.0934 N/A
4:16 am 04:16 Clear 52 11 39 4 62 62 NW 6 9 30.15 1021 10 16.0934 N/A
4:36 am 04:36 Clear 52 11 39 4 62 62 WNW 7 11 30.15 1021 10 16.0934 N/A
4:56 am 04:56 Clear 52 11 37 3 58 58 NW 7 11 30.15 1021 10 16.0934 N/A
5:16 am 05:16 Clear 50 10 37 3 62 62 NW 8 13 30.15 1021 10 16.0934 N/A
5:36 am 05:36 Clear 50 10 36 2 58 58 NW 8 13 30.15 1021 10 16.0934 N/A
5:57 am 05:57 Clear 50 10 36 2 58 58 NW 9 15 30.15 1021 10 16.0934 N/A
6:16 am 06:16 Clear 48 9 36 2 62 62 NW 8 13 30.15 1021 10 16.0934 N/A
6:36 am 06:36 Sunny 48 9 37 3 66 66 NW 7 11 30.18 1022 10 16.0934 N/A
6:56 am 06:56 Sunny 48 9 36 2 62 62 NW 8 13 30.18 1022 10 16.0934 N/A
7:16 am 07:16 Sunny 48 9 36 2 62 62 NW 12 19 30.18 1022 10 16.0934 N/A
7:37 am 07:37 Sunny 50 10 36 2 58 58 NW 9 15 30.18 1022 10 16.0934 N/A
7:56 am 07:56 Sunny 50 10 36 2 58 58 NW 13 20 30.18 1022 10 16.0934 N/A
8:16 am 08:16 Sunny 50 10 36 2 58 58 NNW 14 22 30.18 1022 10 16.0934 N/A
8:36 am 08:36 Sunny 50 10 34 1 54 54 WNW 12 19 30.21 1023 10 16.0934 N/A
8:56 am 08:56 Sunny 52 11 34 1 50 50 NW 14 22 30.21 1023 10 16.0934 N/A
9:16 am 09:16 Sunny 52 11 34 1 50 50 NW 12 19 30.21 1023 10 16.0934 N/A
9:36 am 09:36 Partly Cloudy 54 12 34 1 47 47 NNW 10 17 30.21 1023 10 16.0934 N/A
9:56 am 09:56 Partly Cloudy 54 12 34 1 47 47 NW 12 19 30.21 1023 10 16.0934 N/A
10:16 am 10:16 Partly Cloudy 54 12 34 1 47 47 NW 10 17 30.21 1023 10 16.0934 N/A
10:36 am 10:36 Mostly Cloudy 54 12 34 1 47 47 N 12 19 30.21 1023 10 16.0934 N/A
10:56 am 10:56 Partly Cloudy 55 13 34 1 44 44 NW 12 19 30.21 1023 10 16.0934 N/A
11:16 am 11:16 Partly Cloudy 55 13 34 1 44 44 WNW 14 22 30.21 1023 10 16.0934 N/A
11:37 am 11:37 Partly Cloudy 55 13 34 1 44 44 WNW 12 19 30.21 1023 10 16.0934 N/A
11:56 am 11:56 Sunny 57 14 32 0 39 39 NNW 12 19 30.18 1022 10 16.0934 N/A
12:16 pm 12:16 Partly Cloudy 57 14 32 0 39 39 NNW 6 9 30.18 1022 10 16.0934 N/A
12:36 pm 12:36 Sunny 57 14 32 0 39 39 NW 10 17 30.18 1022 10 16.0934 N/A
12:57 pm 12:57 Partly Cloudy 59 15 32 0 36 36 NW 9 15 30.18 1022 10 16.0934 N/A
1:16 pm 13:16 Sunny 59 15 34 1 39 39 NW 10 17 30.18 1022 10 16.0934 N/A
1:36 pm 13:36 Sunny 59 15 32 0 36 36 WNW 13 20 30.18 1022 10 16.0934 N/A
1:56 pm 13:56 Sunny 61 16 32 0 34 34 N 3 6 30.18 1022 10 16.0934 N/A
2:16 pm 14:16 Sunny 61 16 32 0 34 34 NW 5 7 30.18 1022 10 16.0934 N/A
2:36 pm 14:36 Sunny 61 16 32 0 34 34 NW 10 17 30.18 1022 10 16.0934 N/A
2:56 pm 14:56 Sunny 63 17 32 0 32 32 NW 8 13 30.18 1022 10 16.0934 N/A
3:17 pm 15:17 Sunny 63 17 32 0 32 32 NW 10 17 30.18 1022 10 16.0934 N/A
3:36 pm 15:36 Sunny 63 17 32 0 32 32 WNW 13 20 30.18 1022 10 16.0934 N/A
3:56 pm 15:56 Sunny 63 17 32 0 32 32 NNW 12 19 30.18 1022 10 16.0934 N/A
4:16 pm 16:16 Partly Cloudy 63 17 32 0 32 32 N 10 17 30.15 1021 10 16.0934 N/A
4:36 pm 16:36 Sunny 64 18 32 0 30 30 N 6 9 30.15 1021 10 16.0934 N/A
4:56 pm 16:56 Sunny 64 18 34 1 32 32 NNW 10 17 30.15 1021 10 16.0934 N/A
5:16 pm 17:16 Sunny 63 17 32 0 32 32 NW 12 19 30.15 1021 10 16.0934 N/A
5:36 pm 17:36 Sunny 63 17 32 0 32 32 NNW 15 24 30.15 1021 10 16.0934 N/A
5:57 pm 17:57 Sunny 63 17 32 0 32 32 NNW 6 9 30.15 1021 10 16.0934 N/A
6:16 pm 18:16 Sunny 63 17 32 0 32 32 NNW 8 13 30.15 1021 10 16.0934 N/A
6:37 pm 18:37 Sunny 63 17 32 0 32 32 NNW 13 20 30.15 1021 10 16.0934 N/A
6:56 pm 18:56 Sunny 61 16 32 0 34 34 N 12 19 30.15 1021 10 16.0934 N/A
7:17 pm 19:17 Sunny 61 16 32 0 34 34 NNW 12 19 30.15 1021 10 16.0934 N/A
7:36 pm 19:36 Sunny 61 16 32 0 34 34 N 8 13 30.15 1021 10 16.0934 N/A
7:56 pm 19:56 Sunny 59 15 32 0 36 36 NNW 15 24 30.15 1021 10 16.0934 N/A
8:16 pm 20:16 Sunny 57 14 34 1 41 41 N 14 22 30.18 1022 10 16.0934 N/A
8:36 pm 20:36 Sunny 55 13 34 1 44 44 N 13 20 30.21 1023 10 16.0934 N/A
8:56 pm 20:56 Clear 54 12 36 2 51 51 N 12 19 30.21 1023 10 16.0934 N/A
9:16 pm 21:16 Clear 52 11 34 1 50 50 N 12 19 30.21 1023 10 16.0934 N/A
9:36 pm 21:36 Clear 52 11 36 2 54 54 N 12 19 30.21 1023 10 16.0934 N/A
9:57 pm 21:57 Clear 50 10 36 2 58 58 NNE 10 17 30.21 1023 10 16.0934 N/A
10:16 pm 22:16 Clear 50 10 36 2 58 58 NNE 9 15 30.21 1023 10 16.0934 N/A
10:36 pm 22:36 Clear 50 10 36 2 58 58 NNE 10 17 30.21 1023 10 16.0934 N/A
10:56 pm 22:56 Clear 48 9 36 2 62 62 NNE 10 17 30.21 1023 10 16.0934 N/A
11:16 pm 23:16 Clear 48 9 36 2 62 62 NNE 10 17 30.21 1023 10 16.0934 N/A
11:36 pm 23:36 Clear 48 9 36 2 62 62 NNE 10 17 30.21 1023 10 16.0934 N/A
11:56 pm 23:56 Clear 48 9 36 2 62 62 NNE 9 15 30.21 1023 10 16.0934 N/A

Powered by AerisWeather